Torna al catalogo

COSMOS 1447

AttivoMilitarePO
NORAD 13916·PAYLOAD·🇷🇺 Russia

Lanciato Mar 24, 1983 da Plesetsk Cosmodrome

Loading…

Prossimi Passaggi (prossime 24 ore)

TLE

AggiornatoSource: Space-Track

Epoca: Sep 14, 2026, 13:44 UTC

1 13916U 83021A   26257.57249116  .00000059  00000-0  45481-4 0  9991
2 13916  82.9430 293.2078 0036471 302.6796 211.3870 13.75359093181369

Traccia COSMOS 1447 in tempo reale con AllMySat

Download on the App Store